Time,TemperatureF,DewpointF,PressureIn,WindDirection,WindDirectionDegrees,WindSpeedMPH,WindSpeedGustMPH,Humidity,HourlyPrecipIn,Conditions,Clouds,dailyrainin,SoftwareType,DateUTC
2013-05-24 00:00:00,42.7,31.7,30.33,North,360,4.0,4.0,65,0.00,,,0.10,Wunderground v.1.15,2013-05-24 05:00:00,
2013-05-24 00:05:00,42.7,31.7,30.33,NNE,14,5.0,6.0,65,0.00,,,0.00,Wunderground v.1.15,2013-05-24 05:05:00,
2013-05-24 00:10:00,42.6,31.7,30.33,NNE,19,5.0,19.0,65,0.00,,,0.00,Wunderground v.1.15,2013-05-24 05:10:00,
2013-05-24 00:15:00,42.6,31.7,30.33,North,355,5.0,19.0,65,0.00,,,0.00,Wunderground v.1.15,2013-05-24 05:15:00,
2013-05-24 00:25:00,42.5,31.6,30.33,NNE,16,6.0,19.0,65,0.00,,,0.00,Wunderground v.1.15,2013-05-24 05:25:00,
2013-05-24 00:30:00,42.4,31.5,30.33,North,10,5.0,5.0,65,0.00,,,0.00,Wunderground v.1.15,2013-05-24 05:30:00,
2013-05-24 00:35:00,42.3,31.4,30.33,North,360,4.0,19.0,65,0.00,,,0.00,Wunderground v.1.15,2013-05-24 05:35:00,
2013-05-24 00:40:00,42.2,31.6,30.33,North,350,5.0,19.0,66,0.00,,,0.00,Wunderground v.1.15,2013-05-24 05:40:00,
2013-05-24 00:45:00,42.1,31.2,30.33,North,11,6.0,19.0,65,0.00,,,0.00,Wunderground v.1.15,2013-05-24 05:45:00,
2013-05-24 00:50:00,42.0,31.5,30.33,North,360,5.0,19.0,66,0.00,,,0.00,Wunderground v.1.15,2013-05-24 05:50:00,
2013-05-24 00:55:00,41.9,31.4,30.33,NNE,15,6.0,19.0,66,0.00,,,0.00,Wunderground v.1.15,2013-05-24 05:55:00,
2013-05-24 01:00:00,41.8,31.3,30.33,NNE,18,6.0,6.0,66,0.00,,,0.00,Wunderground v.1.15,2013-05-24 06:00:00,
2013-05-24 01:05:00,41.7,31.5,30.33,North,355,5.0,19.0,67,0.00,,,0.00,Wunderground v.1.15,2013-05-24 06:05:00,
2013-05-24 01:10:00,41.6,31.4,30.33,North,355,5.0,19.0,67,0.00,,,0.00,Wunderground v.1.15,2013-05-24 06:10:00,
2013-05-24 01:15:00,41.4,31.3,30.33,North,360,5.0,19.0,67,0.00,,,0.00,Wunderground v.1.15,2013-05-24 06:15:00,
2013-05-24 01:25:00,41.3,31.5,30.33,North,10,4.0,19.0,68,0.00,,,0.00,Wunderground v.1.15,2013-05-24 06:25:00,
2013-05-24 01:30:00,41.3,31.5,30.33,NNW,346,5.0,19.0,68,0.00,,,0.00,Wunderground v.1.15,2013-05-24 06:30:00,
2013-05-24 01:35:00,41.2,31.4,30.33,North,5,5.0,19.0,68,0.00,,,0.00,Wunderground v.1.15,2013-05-24 06:35:00,
2013-05-24 01:40:00,41.1,31.3,30.33,NNE,22,5.0,19.0,68,0.00,,,0.00,Wunderground v.1.15,2013-05-24 06:40:00,
2013-05-24 01:45:00,40.9,31.5,30.33,NNW,341,4.0,19.0,69,0.00,,,0.00,Wunderground v.1.15,2013-05-24 06:45:00,
2013-05-24 01:50:00,40.8,31.4,30.33,NE,46,4.0,4.0,69,0.00,,,0.00,Wunderground v.1.15,2013-05-24 06:50:00,
2013-05-24 01:55:00,40.7,31.7,30.33,NNE,28,3.0,19.0,70,0.00,,,0.00,Wunderground v.1.15,2013-05-24 06:55:00,
2013-05-24 02:00:00,40.6,31.6,30.34,NE,34,2.0,2.0,70,0.00,,,0.00,Wunderground v.1.15,2013-05-24 07:00:00,
2013-05-24 02:05:00,40.5,31.5,30.34,NE,48,3.0,4.0,70,0.00,,,0.00,Wunderground v.1.15,2013-05-24 07:05:00,
2013-05-24 02:10:00,40.4,31.7,30.34,NNE,23,3.0,3.0,71,0.00,,,0.00,Wunderground v.1.15,2013-05-24 07:10:00,
2013-05-24 02:15:00,40.2,31.5,30.34,NNE,20,2.0,19.0,71,0.00,,,0.00,Wunderground v.1.15,2013-05-24 07:15:00,
2013-05-24 02:20:00,40.2,31.5,30.35,North,355,3.0,3.0,71,0.00,,,0.00,Wunderground v.1.15,2013-05-24 07:20:00,
2013-05-24 02:25:00,40.1,31.8,30.34,NNE,21,3.0,19.0,72,0.00,,,0.00,Wunderground v.1.15,2013-05-24 07:25:00,
2013-05-24 02:30:00,40.0,31.7,30.35,North,10,3.0,19.0,72,0.00,,,0.00,Wunderground v.1.15,2013-05-24 07:30:00,
2013-05-24 02:35:00,40.0,31.7,30.35,North,5,4.0,19.0,72,0.00,,,0.00,Wunderground v.1.15,2013-05-24 07:35:00,
2013-05-24 02:40:00,39.9,31.6,30.35,NNE,21,4.0,4.0,72,0.00,,,0.00,Wunderground v.1.15,2013-05-24 07:40:00,
2013-05-24 02:45:00,39.8,31.5,30.35,North,5,3.0,5.0,72,0.00,,,0.00,Wunderground v.1.15,2013-05-24 07:45:00,
2013-05-24 02:50:00,39.8,31.5,30.35,North,351,4.0,4.0,72,0.00,,,0.00,Wunderground v.1.15,2013-05-24 07:50:00,
2013-05-24 02:55:00,39.9,31.6,30.35,NNE,13,4.0,5.0,72,0.00,,,0.00,Wunderground v.1.15,2013-05-24 07:55:00,
2013-05-24 03:00:00,39.8,31.5,30.35,NNE,25,4.0,4.0,72,0.00,,,0.00,Wunderground v.1.15,2013-05-24 08:00:00,
2013-05-24 03:05:00,39.7,31.4,30.35,North,11,4.0,19.0,72,0.00,,,0.00,Wunderground v.1.15,2013-05-24 08:05:00,
2013-05-24 03:10:00,39.6,31.7,30.35,NNE,13,4.0,19.0,73,0.00,,,0.00,Wunderground v.1.15,2013-05-24 08:10:00,
2013-05-24 03:15:00,39.5,31.6,30.36,NNE,19,4.0,19.0,73,0.00,,,0.00,Wunderground v.1.15,2013-05-24 08:15:00,
2013-05-24 03:20:00,39.3,31.7,30.36,North,5,3.0,19.0,74,0.00,,,0.00,Wunderground v.1.15,2013-05-24 08:20:00,
2013-05-24 03:25:00,39.2,31.6,30.36,ENE,57,3.0,19.0,74,0.00,,,0.00,Wunderground v.1.15,2013-05-24 08:25:00,
2013-05-24 03:35:00,38.9,31.6,30.36,North,11,3.0,19.0,75,0.00,,,0.00,Wunderground v.1.15,2013-05-24 08:35:00,
2013-05-24 03:40:00,38.8,31.6,30.36,NNE,24,3.0,19.0,75,0.00,,,0.00,Wunderground v.1.15,2013-05-24 08:40:00,
2013-05-24 03:45:00,38.6,31.4,30.36,NNE,16,3.0,19.0,75,0.00,,,0.00,Wunderground v.1.15,2013-05-24 08:45:00,
2013-05-24 03:50:00,38.6,31.4,30.36,NNE,19,3.0,19.0,75,0.00,,,0.00,Wunderground v.1.15,2013-05-24 08:50:00,
2013-05-24 03:55:00,38.6,31.7,30.36,North,9,3.0,19.0,76,0.00,,,0.00,Wunderground v.1.15,2013-05-24 08:55:00,
2013-05-24 04:05:00,38.4,31.8,30.37,NNW,342,2.0,19.0,77,0.00,,,0.00,Wunderground v.1.15,2013-05-24 09:05:00,
2013-05-24 04:10:00,38.3,31.7,30.37,North,9,2.0,19.0,77,0.00,,,0.00,Wunderground v.1.15,2013-05-24 09:10:00,
2013-05-24 04:15:00,38.2,31.6,30.37,NNE,19,2.0,19.0,77,0.00,,,0.00,Wunderground v.1.15,2013-05-24 09:15:00,
2013-05-24 04:20:00,38.1,31.8,30.37,North,5,3.0,19.0,78,0.00,,,0.00,Wunderground v.1.15,2013-05-24 09:20:00,
2013-05-24 04:25:00,38.0,31.7,30.37,NNE,29,3.0,19.0,78,0.00,,,0.00,Wunderground v.1.15,2013-05-24 09:25:00,
2013-05-24 04:35:00,37.7,31.8,30.38,NNE,15,4.0,19.0,79,0.00,,,0.00,Wunderground v.1.15,2013-05-24 09:35:00,
2013-05-24 04:40:00,37.5,31.6,30.38,North,360,3.0,19.0,79,0.00,,,0.00,Wunderground v.1.15,2013-05-24 09:40:00,
2013-05-24 04:45:00,37.6,31.7,30.38,North,11,3.0,19.0,79,0.00,,,0.00,Wunderground v.1.15,2013-05-24 09:45:00,
2013-05-24 04:50:00,37.6,31.7,30.39,NNE,26,3.0,3.0,79,0.00,,,0.00,Wunderground v.1.15,2013-05-24 09:50:00,
2013-05-24 05:00:00,37.5,31.6,30.40,NNE,14,3.0,19.0,79,0.00,,,0.00,Wunderground v.1.15,2013-05-24 10:00:00,
2013-05-24 05:05:00,37.4,31.5,30.39,NNE,32,3.0,19.0,79,0.00,,,0.00,Wunderground v.1.15,2013-05-24 10:05:00,
2013-05-24 05:10:00,37.2,31.6,30.39,NNE,13,2.0,19.0,80,0.00,,,0.00,Wunderground v.1.15,2013-05-24 10:10:00,
2013-05-24 05:15:00,37.0,31.4,30.39,NNE,26,2.0,19.0,80,0.00,,,0.00,Wunderground v.1.15,2013-05-24 10:15:00,
2013-05-24 05:20:00,36.8,31.5,30.40,NNE,31,3.0,3.0,81,0.00,,,0.00,Wunderground v.1.15,2013-05-24 10:20:00,
2013-05-24 05:25:00,36.8,31.5,30.40,NNE,32,3.0,19.0,81,0.00,,,0.00,Wunderground v.1.15,2013-05-24 10:25:00,
2013-05-24 05:30:00,36.8,31.5,30.40,NNE,29,3.0,3.0,81,0.00,,,0.00,Wunderground v.1.15,2013-05-24 10:30:00,
2013-05-24 05:35:00,36.6,31.6,30.40,North,11,3.0,19.0,82,0.00,,,0.00,Wunderground v.1.15,2013-05-24 10:35:00,
2013-05-24 05:40:00,36.5,31.5,30.41,NNE,13,3.0,19.0,82,0.00,,,0.00,Wunderground v.1.15,2013-05-24 10:40:00,
2013-05-24 05:45:00,36.4,31.4,30.40,NNE,30,4.0,19.0,82,0.00,,,0.00,Wunderground v.1.15,2013-05-24 10:45:00,
2013-05-24 05:50:00,36.6,31.9,30.40,NNE,19,3.0,19.0,83,0.00,,,0.00,Wunderground v.1.15,2013-05-24 10:50:00,
2013-05-24 05:55:00,36.9,31.9,30.41,North,360,3.0,19.0,82,0.00,,,0.00,Wunderground v.1.15,2013-05-24 10:55:00,
2013-05-24 06:00:00,37.1,32.1,30.41,North,360,4.0,4.0,82,0.00,,,0.00,Wunderground v.1.15,2013-05-24 11:00:00,
2013-05-24 06:05:00,37.4,32.4,30.41,NNW,346,4.0,19.0,82,0.00,,,0.00,Wunderground v.1.15,2013-05-24 11:05:00,
2013-05-24 06:10:00,37.5,32.2,30.41,NNE,23,4.0,19.0,81,0.00,,,0.00,Wunderground v.1.15,2013-05-24 11:10:00,
2013-05-24 06:15:00,37.6,32.3,30.42,NNE,14,5.0,19.0,81,0.00,,,0.00,Wunderground v.1.15,2013-05-24 11:15:00,
2013-05-24 06:20:00,37.8,32.5,30.42,NNE,24,4.0,4.0,81,0.00,,,0.00,Wunderground v.1.15,2013-05-24 11:20:00,
2013-05-24 06:25:00,38.0,32.4,30.42,North,360,4.0,19.0,80,0.00,,,0.00,Wunderground v.1.15,2013-05-24 11:25:00,
2013-05-24 06:30:00,38.1,32.5,30.42,NNE,22,4.0,4.0,80,0.00,,,0.00,Wunderground v.1.15,2013-05-24 11:30:00,
2013-05-24 06:35:00,38.3,32.7,30.42,North,5,4.0,19.0,80,0.00,,,0.00,Wunderground v.1.15,2013-05-24 11:35:00,
2013-05-24 06:40:00,38.7,32.7,30.42,NNE,17,4.0,4.0,79,0.00,,,0.00,Wunderground v.1.15,2013-05-24 11:40:00,
2013-05-24 06:45:00,38.9,32.9,30.42,North,350,4.0,19.0,79,0.00,,,0.00,Wunderground v.1.15,2013-05-24 11:45:00,
2013-05-24 06:50:00,39.2,32.9,30.42,NE,36,4.0,4.0,78,0.00,,,0.00,Wunderground v.1.15,2013-05-24 11:50:00,
2013-05-24 06:55:00,39.4,33.1,30.42,NNE,17,4.0,19.0,78,0.00,,,0.00,Wunderground v.1.15,2013-05-24 11:55:00,
2013-05-24 07:00:00,39.5,32.9,30.43,NNW,327,5.0,5.0,77,0.00,,,0.00,Wunderground v.1.15,2013-05-24 12:00:00,
2013-05-24 07:05:00,39.8,33.5,30.43,North,349,5.0,6.0,78,0.00,,,0.00,Wunderground v.1.15,2013-05-24 12:05:00,
2013-05-24 07:10:00,40.2,33.2,30.44,North,355,4.0,4.0,76,0.00,,,0.00,Wunderground v.1.15,2013-05-24 12:10:00,
2013-05-24 07:15:00,40.6,33.6,30.44,North,355,4.0,19.0,76,0.00,,,0.00,Wunderground v.1.15,2013-05-24 12:15:00,
2013-05-24 07:20:00,40.9,33.6,30.43,NE,36,5.0,19.0,75,0.00,,,0.00,Wunderground v.1.15,2013-05-24 12:20:00,
2013-05-24 07:25:00,41.1,33.4,30.43,NNE,15,5.0,19.0,74,0.00,,,0.00,Wunderground v.1.15,2013-05-24 12:25:00,
2013-05-24 07:35:00,41.9,33.2,30.43,NE,54,5.0,19.0,71,0.00,,,0.00,Wunderground v.1.15,2013-05-24 12:35:00,
2013-05-24 07:40:00,42.3,32.8,30.44,NNE,28,5.0,19.0,69,0.00,,,0.00,Wunderground v.1.15,2013-05-24 12:40:00,
2013-05-24 07:45:00,42.8,33.3,30.44,ENE,58,5.0,19.0,69,0.00,,,0.00,Wunderground v.1.15,2013-05-24 12:45:00,
2013-05-24 07:50:00,43.0,32.4,30.43,NE,39,5.0,19.0,66,0.00,,,0.00,Wunderground v.1.15,2013-05-24 12:50:00,
2013-05-24 07:55:00,42.9,32.3,30.43,NE,55,6.0,19.0,66,0.00,,,0.00,Wunderground v.1.15,2013-05-24 12:55:00,
2013-05-24 08:00:00,42.9,31.6,30.44,ENE,65,7.0,7.0,64,0.00,,,0.00,Wunderground v.1.15,2013-05-24 13:00:00,
2013-05-24 08:05:00,43.4,32.4,30.43,NNE,27,6.0,19.0,65,0.00,,,0.00,Wunderground v.1.15,2013-05-24 13:05:00,
2013-05-24 08:10:00,43.7,31.9,30.43,NNE,27,6.0,19.0,63,0.00,,,0.00,Wunderground v.1.15,2013-05-24 13:10:00,
2013-05-24 08:15:00,43.6,32.2,30.43,NE,37,6.0,19.0,64,0.00,,,0.00,Wunderground v.1.15,2013-05-24 13:15:00,
2013-05-24 08:20:00,44.0,32.2,30.43,NE,53,6.0,6.0,63,0.00,,,0.00,Wunderground v.1.15,2013-05-24 13:20:00,
2013-05-24 08:25:00,44.5,32.3,30.43,East,92,5.0,8.0,62,0.00,,,0.00,Wunderground v.1.15,2013-05-24 13:25:00,
2013-05-24 08:30:00,44.8,32.6,30.44,NNE,27,5.0,19.0,62,0.00,,,0.00,Wunderground v.1.15,2013-05-24 13:30:00,
2013-05-24 08:35:00,44.9,32.3,30.44,ENE,58,5.0,19.0,61,0.00,,,0.00,Wunderground v.1.15,2013-05-24 13:35:00,
2013-05-24 08:40:00,44.8,32.2,30.44,NE,51,6.0,6.0,61,0.00,,,0.00,Wunderground v.1.15,2013-05-24 13:40:00,
2013-05-24 08:45:00,44.8,32.2,30.44,NE,56,5.0,19.0,61,0.00,,,0.00,Wunderground v.1.15,2013-05-24 13:45:00,
2013-05-24 08:50:00,44.9,31.8,30.44,NNE,16,5.0,5.0,60,0.00,,,0.00,Wunderground v.1.15,2013-05-24 13:50:00,
2013-05-24 08:55:00,45.1,32.0,30.44,ENE,64,5.0,7.0,60,0.00,,,0.00,Wunderground v.1.15,2013-05-24 13:55:00,
2013-05-24 09:00:00,45.2,32.5,30.44,ENE,76,5.0,19.0,61,0.00,,,0.00,Wunderground v.1.15,2013-05-24 14:00:00,
2013-05-24 09:05:00,45.5,32.4,30.44,NE,54,6.0,19.0,60,0.00,,,0.00,Wunderground v.1.15,2013-05-24 14:05:00,
2013-05-24 09:10:00,45.5,32.4,30.45,ENE,57,5.0,19.0,60,0.00,,,0.00,Wunderground v.1.15,2013-05-24 14:10:00,
2013-05-24 09:15:00,45.5,32.4,30.45,ESE,107,5.0,19.0,60,0.00,,,0.00,Wunderground v.1.15,2013-05-24 14:15:00,
2013-05-24 09:20:00,45.6,32.5,30.45,NNE,21,5.0,5.0,60,0.00,,,0.00,Wunderground v.1.15,2013-05-24 14:20:00,
2013-05-24 09:25:00,45.8,32.7,30.45,ENE,61,4.0,19.0,60,0.00,,,0.00,Wunderground v.1.15,2013-05-24 14:25:00,
2013-05-24 09:30:00,46.2,33.1,30.45,NNE,22,4.0,19.0,60,0.00,,,0.00,Wunderground v.1.15,2013-05-24 14:30:00,
2013-05-24 09:35:00,46.2,32.2,30.45,NW,322,4.0,19.0,58,0.00,,,0.00,Wunderground v.1.15,2013-05-24 14:35:00,
2013-05-24 09:40:00,46.4,32.4,30.45,ESE,110,3.0,19.0,58,0.00,,,0.00,Wunderground v.1.15,2013-05-24 14:40:00,
2013-05-24 09:45:00,46.5,32.5,30.45,NNE,32,3.0,19.0,58,0.00,,,0.00,Wunderground v.1.15,2013-05-24 14:45:00,
2013-05-24 09:50:00,46.8,32.8,30.45,ESE,114,3.0,3.0,58,0.00,,,0.00,Wunderground v.1.15,2013-05-24 14:50:00,
2013-05-24 09:55:00,47.4,33.4,30.45,East,81,2.0,5.0,58,0.00,,,0.00,Wunderground v.1.15,2013-05-24 14:55:00,
2013-05-24 10:00:00,47.5,33.0,30.45,SW,216,3.0,19.0,57,0.00,,,0.00,Wunderground v.1.15,2013-05-24 15:00:00,
2013-05-24 10:05:00,47.7,33.2,30.45,ESE,123,4.0,19.0,57,0.00,,,0.00,Wunderground v.1.15,2013-05-24 15:05:00,
2013-05-24 10:10:00,47.9,33.4,30.44,ESE,121,3.0,19.0,57,0.00,,,0.00,Wunderground v.1.15,2013-05-24 15:10:00,
2013-05-24 10:15:00,47.8,33.3,30.44,ESE,119,4.0,19.0,57,0.00,,,0.00,Wunderground v.1.15,2013-05-24 15:15:00,
2013-05-24 10:20:00,48.0,33.9,30.44,SSE,165,5.0,5.0,58,0.00,,,0.00,Wunderground v.1.15,2013-05-24 15:20:00,
2013-05-24 10:25:00,48.5,34.8,30.44,SSE,150,5.0,6.0,59,0.00,,,0.00,Wunderground v.1.15,2013-05-24 15:25:00,
2013-05-24 10:30:00,48.1,34.0,30.44,ESE,103,6.0,19.0,58,0.00,,,0.00,Wunderground v.1.15,2013-05-24 15:30:00,
2013-05-24 10:35:00,48.0,33.5,30.44,East,88,7.0,19.0,57,0.00,,,0.00,Wunderground v.1.15,2013-05-24 15:35:00,
2013-05-24 10:40:00,48.1,33.6,30.44,SE,137,6.0,19.0,57,0.00,,,0.00,Wunderground v.1.15,2013-05-24 15:40:00,
2013-05-24 10:45:00,47.8,33.3,30.44,SE,134,6.0,19.0,57,0.00,,,0.00,Wunderground v.1.15,2013-05-24 15:45:00,
2013-05-24 10:50:00,48.1,33.6,30.44,SE,127,6.0,6.0,57,0.00,,,0.00,Wunderground v.1.15,2013-05-24 15:50:00,
2013-05-24 11:00:00,48.7,33.2,30.44,SE,138,5.0,5.0,55,0.00,,,0.00,Wunderground v.1.15,2013-05-24 16:00:00,
2013-05-24 11:05:00,48.9,33.4,30.44,South,177,5.0,19.0,55,0.00,,,0.00,Wunderground v.1.15,2013-05-24 16:05:00,
2013-05-24 11:10:00,49.0,34.0,30.44,SSE,163,6.0,19.0,56,0.00,,,0.00,Wunderground v.1.15,2013-05-24 16:10:00,
2013-05-24 11:15:00,49.0,33.5,30.44,SE,130,6.0,19.0,55,0.00,,,0.00,Wunderground v.1.15,2013-05-24 16:15:00,
2013-05-24 11:20:00,49.3,34.3,30.44,East,84,5.0,5.0,56,0.00,,,0.00,Wunderground v.1.15,2013-05-24 16:20:00,
2013-05-24 11:25:00,49.7,34.6,30.44,SE,144,4.0,6.0,56,0.00,,,0.00,Wunderground v.1.15,2013-05-24 16:25:00,
2013-05-24 11:30:00,49.8,33.8,30.44,ESE,111,5.0,19.0,54,0.00,,,0.00,Wunderground v.1.15,2013-05-24 16:30:00,
2013-05-24 11:35:00,49.5,33.5,30.44,East,84,6.0,19.0,54,0.00,,,0.00,Wunderground v.1.15,2013-05-24 16:35:00,
2013-05-24 11:40:00,49.2,33.3,30.44,SE,134,6.0,19.0,54,0.00,,,0.00,Wunderground v.1.15,2013-05-24 16:40:00,
2013-05-24 11:45:00,49.0,33.5,30.44,East,82,6.0,19.0,55,0.00,,,0.00,Wunderground v.1.15,2013-05-24 16:45:00,
2013-05-24 11:50:00,49.3,33.8,30.44,ESE,120,6.0,19.0,55,0.00,,,0.00,Wunderground v.1.15,2013-05-24 16:50:00,
2013-05-24 11:55:00,49.4,33.4,30.44,ESE,119,6.0,19.0,54,0.00,,,0.00,Wunderground v.1.15,2013-05-24 16:55:00,
2013-05-24 12:00:00,49.9,34.4,30.43,SE,140,6.0,6.0,55,0.00,,,0.00,Wunderground v.1.15,2013-05-24 17:00:00,
2013-05-24 12:05:00,49.8,32.9,30.43,SE,136,5.0,12.0,52,0.00,,,0.00,Wunderground v.1.15,2013-05-24 17:05:00,
2013-05-24 12:10:00,49.1,33.6,30.43,SSE,162,7.0,19.0,55,0.00,,,0.00,Wunderground v.1.15,2013-05-24 17:10:00,
2013-05-24 12:15:00,49.2,33.7,30.43,ENE,71,7.0,19.0,55,0.00,,,0.00,Wunderground v.1.15,2013-05-24 17:15:00,
2013-05-24 12:25:00,49.5,34.0,30.43,East,86,6.0,19.0,55,0.00,,,0.00,Wunderground v.1.15,2013-05-24 17:25:00,
2013-05-24 12:30:00,49.6,33.2,30.43,East,96,6.0,6.0,53,0.00,,,0.00,Wunderground v.1.15,2013-05-24 17:30:00,
2013-05-24 12:35:00,49.6,33.6,30.42,ENE,78,6.0,19.0,54,0.00,,,0.00,Wunderground v.1.15,2013-05-24 17:35:00,
2013-05-24 12:40:00,49.7,33.7,30.42,SE,132,6.0,19.0,54,0.00,,,0.00,Wunderground v.1.15,2013-05-24 17:40:00,
2013-05-24 12:45:00,50.1,34.5,30.42,SSE,167,5.0,19.0,55,0.00,,,0.00,Wunderground v.1.15,2013-05-24 17:45:00,
2013-05-24 12:50:00,50.4,33.9,30.42,SE,134,5.0,19.0,53,0.00,,,0.00,Wunderground v.1.15,2013-05-24 17:50:00,
2013-05-24 12:55:00,50.4,34.4,30.41,SE,128,5.0,19.0,54,0.00,,,0.00,Wunderground v.1.15,2013-05-24 17:55:00,
2013-05-24 13:00:00,50.6,35.5,30.42,ENE,76,6.0,6.0,56,0.00,,,0.00,Wunderground v.1.15,2013-05-24 18:00:00,
2013-05-24 13:05:00,51.1,35.5,30.41,ENE,76,5.0,19.0,55,0.00,,,0.00,Wunderground v.1.15,2013-05-24 18:05:00,
2013-05-24 13:10:00,51.6,35.9,30.41,SE,146,4.0,19.0,55,0.00,,,0.00,Wunderground v.1.15,2013-05-24 18:10:00,
2013-05-24 13:15:00,51.7,35.1,30.41,ESE,103,6.0,19.0,53,0.00,,,0.00,Wunderground v.1.15,2013-05-24 18:15:00,
2013-05-24 13:25:00,51.5,34.9,30.41,WSW,245,7.0,19.0,53,0.00,,,0.00,Wunderground v.1.15,2013-05-24 18:25:00,
2013-05-24 13:30:00,51.9,35.3,30.41,SW,233,5.0,5.0,53,0.00,,,0.00,Wunderground v.1.15,2013-05-24 18:30:00,
2013-05-24 13:35:00,52.3,35.7,30.41,SSE,167,5.0,7.0,53,0.00,,,0.00,Wunderground v.1.15,2013-05-24 18:35:00,
2013-05-24 13:40:00,52.2,35.1,30.41,SSE,166,6.0,19.0,52,0.00,,,0.00,Wunderground v.1.15,2013-05-24 18:40:00,
2013-05-24 13:45:00,52.2,36.0,30.41,East,91,5.0,19.0,54,0.00,,,0.00,Wunderground v.1.15,2013-05-24 18:45:00,
2013-05-24 13:50:00,52.5,35.4,30.41,ESE,111,6.0,19.0,52,0.00,,,0.00,Wunderground v.1.15,2013-05-24 18:50:00,
2013-05-24 13:55:00,53.0,36.3,30.40,SSE,149,6.0,19.0,53,0.00,,,0.00,Wunderground v.1.15,2013-05-24 18:55:00,
2013-05-24 14:00:00,52.8,36.1,30.40,South,174,7.0,19.0,53,0.00,,,0.00,Wunderground v.1.15,2013-05-24 19:00:00,
2013-05-24 14:05:00,53.2,37.0,30.40,SE,141,8.0,19.0,54,0.00,,,0.00,Wunderground v.1.15,2013-05-24 19:05:00,
2013-05-24 14:10:00,53.5,36.8,30.40,SSE,155,7.0,19.0,53,0.00,,,0.00,Wunderground v.1.15,2013-05-24 19:10:00,
2013-05-24 14:15:00,53.4,36.2,30.40,South,184,7.0,19.0,52,0.00,,,0.00,Wunderground v.1.15,2013-05-24 19:15:00,
2013-05-24 14:20:00,53.3,35.6,30.40,SSE,152,8.0,19.0,51,0.00,,,0.00,Wunderground v.1.15,2013-05-24 19:20:00,
2013-05-24 14:25:00,53.3,37.1,30.40,South,171,8.0,19.0,54,0.00,,,0.00,Wunderground v.1.15,2013-05-24 19:25:00,
2013-05-24 14:30:00,54.0,36.8,30.39,SE,128,7.0,19.0,52,0.00,,,0.00,Wunderground v.1.15,2013-05-24 19:30:00,
2013-05-24 14:35:00,54.5,37.7,30.39,South,190,7.0,19.0,53,0.00,,,0.00,Wunderground v.1.15,2013-05-24 19:35:00,
2013-05-24 14:40:00,54.5,37.7,30.38,ESE,117,7.0,7.0,53,0.00,,,0.00,Wunderground v.1.15,2013-05-24 19:40:00,
2013-05-24 14:45:00,54.8,37.5,30.38,SSW,199,7.0,19.0,52,0.00,,,0.00,Wunderground v.1.15,2013-05-24 19:45:00,
2013-05-24 14:50:00,55.0,37.2,30.38,ESE,114,7.0,7.0,51,0.00,,,0.00,Wunderground v.1.15,2013-05-24 19:50:00,
2013-05-24 14:55:00,54.7,38.8,30.38,SSE,150,6.0,19.0,55,0.00,,,0.00,Wunderground v.1.15,2013-05-24 19:55:00,
2013-05-24 15:00:00,55.0,38.2,30.37,SSE,167,7.0,7.0,53,0.00,,,0.00,Wunderground v.1.15,2013-05-24 20:00:00,
2013-05-24 15:05:00,55.6,39.2,30.37,SSW,208,7.0,19.0,54,0.00,,,0.00,Wunderground v.1.15,2013-05-24 20:05:00,
2013-05-24 15:10:00,56.1,38.2,30.37,SSW,201,6.0,19.0,51,0.00,,,0.00,Wunderground v.1.15,2013-05-24 20:10:00,
2013-05-24 15:15:00,56.5,38.6,30.37,SSE,154,6.0,19.0,51,0.00,,,0.00,Wunderground v.1.15,2013-05-24 20:15:00,
2013-05-24 15:20:00,56.3,38.4,30.37,South,175,6.0,19.0,51,0.00,,,0.00,Wunderground v.1.15,2013-05-24 20:20:00,
2013-05-24 15:25:00,56.0,39.1,30.36,SSW,200,8.0,19.0,53,0.00,,,0.00,Wunderground v.1.15,2013-05-24 20:25:00,
2013-05-24 15:30:00,56.6,39.2,30.37,SSW,196,7.0,7.0,52,0.00,,,0.00,Wunderground v.1.15,2013-05-24 20:30:00,
2013-05-24 15:35:00,56.7,38.8,30.36,SSE,168,6.0,19.0,51,0.00,,,0.00,Wunderground v.1.15,2013-05-24 20:35:00,
2013-05-24 15:40:00,56.8,38.3,30.36,SSE,149,7.0,7.0,50,0.00,,,0.00,Wunderground v.1.15,2013-05-24 20:40:00,
2013-05-24 15:45:00,57.1,39.1,30.36,ESE,111,6.0,8.0,51,0.00,,,0.00,Wunderground v.1.15,2013-05-24 20:45:00,
2013-05-24 15:55:00,57.4,37.9,30.36,SSE,159,7.0,19.0,48,0.00,,,0.00,Wunderground v.1.15,2013-05-24 20:55:00,
2013-05-24 16:00:00,57.5,37.9,30.36,SE,144,6.0,6.0,48,0.00,,,0.00,Wunderground v.1.15,2013-05-24 21:00:00,
2013-05-24 16:05:00,57.3,37.2,30.36,SE,126,6.0,7.0,47,0.00,,,0.00,Wunderground v.1.15,2013-05-24 21:05:00,
2013-05-24 16:10:00,57.2,36.6,30.35,SE,136,7.0,19.0,46,0.00,,,0.00,Wunderground v.1.15,2013-05-24 21:10:00,
2013-05-24 16:15:00,57.0,37.0,30.35,ESE,116,7.0,19.0,47,0.00,,,0.00,Wunderground v.1.15,2013-05-24 21:15:00,
2013-05-24 16:20:00,57.0,36.4,30.35,SE,128,7.0,19.0,46,0.00,,,0.00,Wunderground v.1.15,2013-05-24 21:20:00,
2013-05-24 16:25:00,57.1,35.9,30.35,South,175,7.0,19.0,45,0.00,,,0.00,Wunderground v.1.15,2013-05-24 21:25:00,
2013-05-24 16:30:00,57.3,36.1,30.35,South,171,7.0,7.0,45,0.00,,,0.00,Wunderground v.1.15,2013-05-24 21:30:00,
2013-05-24 16:35:00,57.3,35.6,30.35,ESE,111,7.0,8.0,44,0.00,,,0.00,Wunderground v.1.15,2013-05-24 21:35:00,
2013-05-24 16:40:00,56.9,34.6,30.35,ESE,110,8.0,8.0,43,0.00,,,0.00,Wunderground v.1.15,2013-05-24 21:40:00,
2013-05-24 16:45:00,56.9,34.6,30.35,South,189,8.0,19.0,43,0.00,,,0.00,Wunderground v.1.15,2013-05-24 21:45:00,
2013-05-24 16:50:00,56.7,33.8,30.35,East,97,7.0,7.0,42,0.00,,,0.00,Wunderground v.1.15,2013-05-24 21:50:00,
2013-05-24 16:55:00,57.1,33.6,30.35,East,97,5.0,8.0,41,0.00,,,0.00,Wunderground v.1.15,2013-05-24 21:55:00,
2013-05-24 17:00:00,57.4,34.5,30.34,SSE,163,4.0,19.0,42,0.00,,,0.00,Wunderground v.1.15,2013-05-24 22:00:00,
2013-05-24 17:05:00,57.8,34.2,30.34,ESE,114,4.0,19.0,41,0.00,,,0.00,Wunderground v.1.15,2013-05-24 22:05:00,
2013-05-24 17:10:00,57.8,33.6,30.34,East,95,4.0,19.0,40,0.00,,,0.00,Wunderground v.1.15,2013-05-24 22:10:00,
2013-05-24 17:15:00,57.6,34.1,30.34,East,93,5.0,19.0,41,0.00,,,0.00,Wunderground v.1.15,2013-05-24 22:15:00,
2013-05-24 17:20:00,57.7,33.5,30.33,ESE,123,5.0,19.0,40,0.00,,,0.00,Wunderground v.1.15,2013-05-24 22:20:00,
2013-05-24 17:25:00,57.2,33.1,30.33,South,179,6.0,19.0,40,0.00,,,0.00,Wunderground v.1.15,2013-05-24 22:25:00,
2013-05-24 17:30:00,56.7,35.0,30.33,South,172,7.0,7.0,44,0.00,,,0.00,Wunderground v.1.15,2013-05-24 22:30:00,
2013-05-24 17:35:00,56.6,34.9,30.33,SE,144,5.0,19.0,44,0.00,,,0.00,Wunderground v.1.15,2013-05-24 22:35:00,
2013-05-24 17:40:00,56.5,34.3,30.33,SSE,156,5.0,19.0,43,0.00,,,0.00,Wunderground v.1.15,2013-05-24 22:40:00,
2013-05-24 17:45:00,56.3,34.1,30.33,SE,132,6.0,19.0,43,0.00,,,0.00,Wunderground v.1.15,2013-05-24 22:45:00,
2013-05-24 17:50:00,56.1,35.0,30.33,SSE,151,6.0,6.0,45,0.00,,,0.00,Wunderground v.1.15,2013-05-24 22:50:00,
2013-05-24 17:55:00,56.2,35.7,30.33,ESE,113,5.0,19.0,46,0.00,,,0.00,Wunderground v.1.15,2013-05-24 22:55:00,
2013-05-24 18:00:00,56.0,34.9,30.32,SE,137,5.0,5.0,45,0.00,,,0.00,Wunderground v.1.15,2013-05-24 23:00:00,
2013-05-24 18:05:00,55.8,35.9,30.32,SE,139,5.0,19.0,47,0.00,,,0.00,Wunderground v.1.15,2013-05-24 23:05:00,
2013-05-24 18:10:00,55.6,35.1,30.32,ESE,113,4.0,19.0,46,0.00,,,0.00,Wunderground v.1.15,2013-05-24 23:10:00,
2013-05-24 18:15:00,55.4,35.5,30.33,ESE,119,5.0,19.0,47,0.00,,,0.00,Wunderground v.1.15,2013-05-24 23:15:00,
2013-05-24 18:20:00,55.1,35.2,30.33,East,96,5.0,19.0,47,0.00,,,0.00,Wunderground v.1.15,2013-05-24 23:20:00,
2013-05-24 18:25:00,55.1,36.8,30.32,South,190,4.0,19.0,50,0.00,,,0.00,Wunderground v.1.15,2013-05-24 23:25:00,
2013-05-24 18:30:00,54.9,37.6,30.32,SE,144,4.0,19.0,52,0.00,,,0.00,Wunderground v.1.15,2013-05-24 23:30:00,
2013-05-24 18:35:00,55.0,39.1,30.32,South,189,4.0,19.0,55,0.00,,,0.00,Wunderground v.1.15,2013-05-24 23:35:00,
2013-05-24 18:40:00,54.9,39.5,30.32,South,178,4.0,19.0,56,0.00,,,0.00,Wunderground v.1.15,2013-05-24 23:40:00,
2013-05-24 18:45:00,54.7,40.6,30.32,South,180,4.0,19.0,59,0.00,,,0.00,Wunderground v.1.15,2013-05-24 23:45:00,
2013-05-24 18:50:00,54.5,40.5,30.32,South,188,3.0,19.0,59,0.00,,,0.00,Wunderground v.1.15,2013-05-24 23:50:00,
2013-05-24 18:55:00,54.2,40.6,30.32,SSE,150,4.0,19.0,60,0.00,,,0.00,Wunderground v.1.15,2013-05-24 23:55:00,
2013-05-24 19:00:00,53.9,40.8,30.32,SW,225,4.0,4.0,61,0.00,,,0.00,Wunderground v.1.15,2013-05-25 00:00:00,
2013-05-24 19:05:00,53.5,40.8,30.33,South,186,4.0,19.0,62,0.00,,,0.00,Wunderground v.1.15,2013-05-25 00:05:00,
2013-05-24 19:10:00,53.2,40.1,30.33,SSE,155,4.0,19.0,61,0.00,,,0.00,Wunderground v.1.15,2013-05-25 00:10:00,
2013-05-24 19:15:00,53.0,40.7,30.33,SW,217,5.0,19.0,63,0.00,,,0.00,Wunderground v.1.15,2013-05-25 00:15:00,
2013-05-24 19:20:00,52.7,40.9,30.33,ESE,119,5.0,5.0,64,0.00,,,0.00,Wunderground v.1.15,2013-05-25 00:20:00,
2013-05-24 19:25:00,52.6,40.8,30.33,SE,136,3.0,19.0,64,0.00,,,0.00,Wunderground v.1.15,2013-05-25 00:25:00,
2013-05-24 19:30:00,52.4,40.6,30.33,SSE,167,2.0,19.0,64,0.00,,,0.00,Wunderground v.1.15,2013-05-25 00:30:00,
2013-05-24 19:35:00,52.6,40.4,30.34,South,188,3.0,19.0,63,0.00,,,0.00,Wunderground v.1.15,2013-05-25 00:35:00,
2013-05-24 19:40:00,52.8,40.5,30.34,SE,135,2.0,19.0,63,0.00,,,0.00,Wunderground v.1.15,2013-05-25 00:40:00,
2013-05-24 19:45:00,53.1,40.8,30.34,South,186,1.0,19.0,63,0.00,,,0.00,Wunderground v.1.15,2013-05-25 00:45:00,
2013-05-24 19:50:00,53.2,41.3,30.34,SE,145,1.0,19.0,64,0.00,,,0.00,Wunderground v.1.15,2013-05-25 00:50:00,
2013-05-24 19:55:00,53.0,41.5,30.34,SE,140,2.0,19.0,65,0.00,,,0.00,Wunderground v.1.15,2013-05-25 00:55:00,
2013-05-24 20:00:00,52.5,41.1,30.34,SSE,152,3.0,19.0,65,0.00,,,0.00,Wunderground v.1.15,2013-05-25 01:00:00,
2013-05-24 20:05:00,52.1,41.1,30.34,SE,134,2.0,19.0,66,0.00,,,0.00,Wunderground v.1.15,2013-05-25 01:05:00,
2013-05-24 20:15:00,51.6,41.4,30.34,SE,138,2.0,19.0,68,0.00,,,0.00,Wunderground v.1.15,2013-05-25 01:15:00,
2013-05-24 20:20:00,51.4,41.2,30.34,SE,125,2.0,19.0,68,0.00,,,0.00,Wunderground v.1.15,2013-05-25 01:20:00,
2013-05-24 20:25:00,51.1,40.9,30.34,SE,128,3.0,19.0,68,0.00,,,0.00,Wunderground v.1.15,2013-05-25 01:25:00,
2013-05-24 20:30:00,50.9,40.7,30.34,SE,128,3.0,19.0,68,0.00,,,0.00,Wunderground v.1.15,2013-05-25 01:30:00,
2013-05-24 20:35:00,50.6,40.8,30.34,South,177,2.0,19.0,69,0.00,,,0.00,Wunderground v.1.15,2013-05-25 01:35:00,
2013-05-24 20:40:00,50.5,41.1,30.35,SSE,166,2.0,2.0,70,0.00,,,0.00,Wunderground v.1.15,2013-05-25 01:40:00,
2013-05-24 20:45:00,50.4,41.0,30.35,South,178,1.0,19.0,70,0.00,,,0.00,Wunderground v.1.15,2013-05-25 01:45:00,
2013-05-24 20:50:00,50.4,41.3,30.35,South,178,0.0,19.0,71,0.00,,,0.00,Wunderground v.1.15,2013-05-25 01:50:00,
2013-05-24 20:55:00,50.3,41.3,30.34,SSE,163,0.0,19.0,71,0.00,,,0.00,Wunderground v.1.15,2013-05-25 01:55:00,
2013-05-24 21:00:00,50.1,41.4,30.35,South,178,0.0,19.0,72,0.00,,,0.00,Wunderground v.1.15,2013-05-25 02:00:00,
2013-05-24 21:10:00,49.9,41.6,30.35,South,177,0.0,19.0,73,0.00,,,0.00,Wunderground v.1.15,2013-05-25 02:10:00,
2013-05-24 21:15:00,49.8,41.8,30.36,South,184,0.0,19.0,74,0.00,,,0.00,Wunderground v.1.15,2013-05-25 02:15:00,
2013-05-24 21:25:00,49.4,41.8,30.36,SSE,161,0.0,19.0,75,0.00,,,0.00,Wunderground v.1.15,2013-05-25 02:25:00,
2013-05-24 21:35:00,48.5,41.3,30.36,SSE,161,0.0,19.0,76,0.00,,,0.00,Wunderground v.1.15,2013-05-25 02:35:00,
2013-05-24 21:40:00,48.1,41.6,30.36,SSE,161,0.0,19.0,78,0.00,,,0.00,Wunderground v.1.15,2013-05-25 02:40:00,
2013-05-24 21:45:00,47.7,41.8,30.36,SSE,161,0.0,19.0,80,0.00,,,0.00,Wunderground v.1.15,2013-05-25 02:45:00,
2013-05-24 21:50:00,47.4,41.9,30.36,SSE,161,0.0,19.0,81,0.00,,,0.00,Wunderground v.1.15,2013-05-25 02:50:00,
2013-05-24 21:55:00,47.1,41.6,30.37,SSE,161,0.0,19.0,81,0.00,,,0.00,Wunderground v.1.15,2013-05-25 02:55:00,
2013-05-24 22:00:00,47.0,41.8,30.37,South,182,0.0,19.0,82,0.00,,,0.00,Wunderground v.1.15,2013-05-25 03:00:00,
2013-05-24 22:10:00,47.0,41.5,30.37,South,184,1.0,19.0,81,0.00,,,0.00,Wunderground v.1.15,2013-05-25 03:10:00,
2013-05-24 22:15:00,47.0,41.5,30.37,South,171,1.0,19.0,81,0.00,,,0.00,Wunderground v.1.15,2013-05-25 03:15:00,
2013-05-24 22:20:00,46.9,41.1,30.37,SSE,167,0.0,19.0,80,0.00,,,0.00,Wunderground v.1.15,2013-05-25 03:20:00,
2013-05-24 22:25:00,46.6,40.4,30.37,ESE,105,1.0,19.0,79,0.00,,,0.00,Wunderground v.1.15,2013-05-25 03:25:00,
2013-05-24 22:30:00,46.1,40.3,30.37,ESE,103,2.0,2.0,80,0.00,,,0.00,Wunderground v.1.15,2013-05-25 03:30:00,
2013-05-24 22:35:00,45.7,40.5,30.37,ESE,103,1.0,19.0,82,0.00,,,0.00,Wunderground v.1.15,2013-05-25 03:35:00,
2013-05-24 22:40:00,45.3,40.4,30.37,South,173,1.0,19.0,83,0.00,,,0.00,Wunderground v.1.15,2013-05-25 03:40:00,
2013-05-24 22:45:00,45.2,40.7,30.37,South,180,1.0,19.0,84,0.00,,,0.00,Wunderground v.1.15,2013-05-25 03:45:00,
2013-05-24 22:50:00,45.1,40.9,30.37,South,180,0.0,19.0,85,0.00,,,0.00,Wunderground v.1.15,2013-05-25 03:50:00,
2013-05-24 23:00:00,44.3,40.4,30.37,South,180,0.0,19.0,86,0.00,,,0.00,Wunderground v.1.15,2013-05-25 04:00:00,
2013-05-24 23:05:00,44.2,40.3,30.37,South,180,0.0,19.0,86,0.00,,,0.00,Wunderground v.1.15,2013-05-25 04:05:00,
2013-05-24 23:10:00,44.0,40.1,30.37,South,180,0.0,19.0,86,0.00,,,0.00,Wunderground v.1.15,2013-05-25 04:10:00,
2013-05-24 23:15:00,43.8,40.2,30.37,South,180,0.0,19.0,87,0.00,,,0.00,Wunderground v.1.15,2013-05-25 04:15:00,
2013-05-24 23:20:00,43.8,40.2,30.37,South,180,0.0,19.0,87,0.00,,,0.00,Wunderground v.1.15,2013-05-25 04:20:00,
2013-05-24 23:25:00,43.9,40.6,30.37,South,180,0.0,19.0,88,0.00,,,0.00,Wunderground v.1.15,2013-05-25 04:25:00,
2013-05-24 23:30:00,43.9,40.6,30.37,South,180,0.0,19.0,88,0.00,,,0.00,Wunderground v.1.15,2013-05-25 04:30:00,
2013-05-24 23:35:00,44.1,40.8,30.37,South,175,0.0,19.0,88,0.00,,,0.00,Wunderground v.1.15,2013-05-25 04:35:00,
2013-05-24 23:40:00,44.5,41.5,30.37,SSE,151,0.0,19.0,89,0.00,,,0.00,Wunderground v.1.15,2013-05-25 04:40:00,
2013-05-24 23:45:00,44.8,41.5,30.37,SSE,148,0.0,19.0,88,0.00,,,0.00,Wunderground v.1.15,2013-05-25 04:45:00,
2013-05-24 23:50:00,45.0,41.7,30.37,SSE,161,0.0,19.0,88,0.00,,,0.00,Wunderground v.1.15,2013-05-25 04:50:00,
2013-05-24 23:55:00,45.2,41.9,30.37,SSE,168,0.0,19.0,88,0.00,,,0.00,Wunderground v.1.15,2013-05-25 04:55:00,